カタログに戻る

SL-8 R/B

運用中LEO
NORAD 21015·ROCKET BODY·🇷🇺 Russia

打ち上げ Dec 10, 1990 から Plesetsk Cosmodrome

Loading…

次のパス (今後24時間)

TLE

最新Source: Space-Track

元期: Sep 14, 2026, 21:48 UTC

1 21015U 90111B   26257.90886942  .00000230  00000-0  85476-4 0  9998
2 21015  74.0488  60.1922 0021989 210.9303 149.0557 14.37349488970692

AllMySatでSL-8 R/Bをリアルタイム追跡

Download on the App Store